Simultaneous Nadir Overpasses (SNOs) Predictions

Prediction of SNOs between AQUA and METOP-B Satellite Orbit:

Table of predicted SNOs for the next 14.0 days since TLE Epoch: 8/19/2023
Index Date (AQUA) Time (AQUA) Lat,Lon (AQUA) SZA (AQUA ) Date (METOP-B) Time (METOP-B) Lat,Lon (METOP-B) SZA (METOP-B ) Distance(km) Time Diff (sec)
1 08/20/2023 10:33:57 74.69, 17.69 62.21 08/20/2023 10:33:07 74.70, 17.64 62.23 2.31 50
2 08/20/2023 11:23:22 -74.76,-174.84 117.71 08/20/2023 11:23:47 -74.78,-174.82 117.69 2.73 25
3 08/23/2023 03:36:42 -74.42, -57.33 117.18 08/23/2023 03:35:32 -74.37, -58.84 117.19 45.48 70
4 08/23/2023 04:26:13 74.74, 109.53 63.17 08/23/2023 04:26:04 74.75, 109.50 63.18 1.23 9
5 08/23/2023 05:15:38 -74.81, -82.99 116.75 08/23/2023 05:16:44 -74.83, -82.95 116.73 2.96 66
6 08/25/2023 21:29:03 -74.73, 33.88 115.92 08/25/2023 21:28:23 -74.75, 33.91 115.90 2.32 40
7 08/25/2023 22:18:29 74.79,-158.64 64.16 08/25/2023 22:19:02 74.78,-158.65 64.15 1.16 33
8 08/28/2023 14:31:53 74.72, -41.77 65.01 08/28/2023 14:30:40 74.74, -41.69 65.04 3.07 73
9 08/28/2023 15:21:18 -74.78, 125.72 114.91 08/28/2023 15:21:21 -74.77, 125.74 114.92 0.90 3
10 08/28/2023 16:10:45 74.90, -66.95 65.23 08/28/2023 16:11:57 74.95, -66.43 65.27 16.12 72
11 08/31/2023 08:24:07 74.78, 50.05 66.05 08/31/2023 08:23:38 74.75, 50.10 66.03 3.13 29
12 08/31/2023 09:13:31 -74.79,-142.33 113.93 08/31/2023 09:14:19 -74.80,-142.46 113.92 3.86 48



Historial Predications of SNOs between AQUA and METOP-B
